• In Belarus
  • List of Countries
  • For 7 days
  • Water Temperature
  • Satellite Maps
  • Weather Map
  • Weather Widgets
  • user-avatar
    Login

    Hourly Weather Seli

    Today, 21 October, Sunday

    Time Temperature Precipitation Wind Pressure Humidity
    00:00 +22°C° 0 mm 3 mps 750 mmHg 68%
    01:00 +21°C° 0 mm 4 mps 750 mmHg 68%
    02:00 +21°C° 0 mm 4 mps 749 mmHg 67%
    03:00 +21°C° 0 mm 4 mps 749 mmHg 69%
    04:00 +21°C° 0 mm 4 mps 749 mmHg 70%
    05:00 +20°C° 0 mm 4 mps 749 mmHg 71%
    06:00 +21°C° 0 mm 4 mps 749 mmHg 70%
    07:00 +21°C° 0 mm 5 mps 749 mmHg 69%
    08:00 +22°C° 0 mm 5 mps 749 mmHg 68%
    09:00 +23°C° 0 mm 4 mps 749 mmHg 63%
    10:00 +25°C° 0 mm 4 mps 750 mmHg 58%
    11:00 +26°C° 0 mm 4 mps 750 mmHg 53%
    12:00 +26°C° 0 mm 4 mps 750 mmHg 53%
    13:00 +26°C° 0 mm 4 mps 749 mmHg 52%
    14:00 +27°C° 0 mm 3 mps 749 mmHg 52%
    15:00 +26°C° 0 mm 3 mps 749 mmHg 53%
    16:00 +26°C° 0 mm 3 mps 749 mmHg 55%
    17:00 +25°C° 0 mm 3 mps 749 mmHg 57%
    18:00 +24°C° 0 mm 3 mps 749 mmHg 59%
    19:00 +24°C° 0 mm 3 mps 749 mmHg 62%
    20:00 +22°C° 0 mm 3 mps 750 mmHg 64%
    21:00 +21°C° 0 mm 3 mps 750 mmHg 65%
    22:00 +21°C° 0 mm 3 mps 750 mmHg 65%
    23:00 +21°C° 0 mm 3 mps 750 mmHg 66%

    Tomorrow, 22 October, Monday

    Time Temperature Precipitation Wind Pressure Humidity
    00:00 +21°C° 0 mm 3 mps 750 mmHg 66%
    01:00 +20°C° 0 mm 3 mps 750 mmHg 66%
    02:00 +20°C° 0 mm 3 mps 750 mmHg 66%
    03:00 +20°C° 0 mm 3 mps 749 mmHg 67%
    04:00 +20°C° 0 mm 3 mps 749 mmHg 67%
    05:00 +19°C° 0 mm 3 mps 749 mmHg 67%
    06:00 +20°C° 0 mm 3 mps 749 mmHg 65%
    07:00 +20°C° 0 mm 3 mps 749 mmHg 63%
    08:00 +21°C° 0 mm 4 mps 750 mmHg 60%
    09:00 +22°C° 0 mm 3 mps 750 mmHg 54%
    10:00 +24°C° 0 mm 3 mps 750 mmHg 48%
    11:00 +25°C° 0 mm 3 mps 750 mmHg 43%
    12:00 +25°C° 0 mm 3 mps 750 mmHg 42%
    13:00 +25°C° 0 mm 3 mps 749 mmHg 42%
    14:00 +26°C° 0 mm 3 mps 749 mmHg 42%
    15:00 +25°C° 0 mm 3 mps 749 mmHg 45%
    16:00 +25°C° 0 mm 3 mps 748 mmHg 48%
    17:00 +24°C° 0 mm 3 mps 748 mmHg 51%
    18:00 +24°C° 0.2 mm 3 mps 748 mmHg 53%
    19:00 +22°C° 0.2 mm 3 mps 749 mmHg 55%
    20:00 +22°C° 0.2 mm 3 mps 749 mmHg 57%
    21:00 +22°C° 0.4 mm 3 mps 749 mmHg 58%
    22:00 +22°C° 0.4 mm 3 mps 749 mmHg 60%
    23:00 +21°C° 0.4 mm 3 mps 749 mmHg 61%

    Day after tomorrow, 23 October, Tuesday

    Time Temperature Precipitation Wind Pressure Humidity
    00:00 +21°C° 0.2 mm 3 mps 749 mmHg 61%
    01:00 +21°C° 0.2 mm 3 mps 748 mmHg 62%
    02:00 +21°C° 0.2 mm 3 mps 748 mmHg 63%
    03:00 +20°C° 0.1 mm 3 mps 748 mmHg 64%
    04:00 +20°C° 0.1 mm 3 mps 748 mmHg 66%
    05:00 +20°C° 0.1 mm 3 mps 747 mmHg 67%
    06:00 +20°C° 0.2 mm 3 mps 747 mmHg 66%
    07:00 +21°C° 0.2 mm 4 mps 748 mmHg 64%
    08:00 +21°C° 0.2 mm 4 mps 748 mmHg 63%
    09:00 +22°C° 0.4 mm 4 mps 748 mmHg 62%
    10:00 +23°C° 0.4 mm 4 mps 748 mmHg 60%
    11:00 +23°C° 0.4 mm 4 mps 748 mmHg 59%
    12:00 +23°C° 0.6 mm 4 mps 747 mmHg 58%
    13:00 +23°C° 0.6 mm 4 mps 747 mmHg 58%
    14:00 +23°C° 0.6 mm 4 mps 746 mmHg 58%
    15:00 +23°C° 0.5 mm 4 mps 746 mmHg 60%
    16:00 +23°C° 0.5 mm 4 mps 746 mmHg 62%
    17:00 +22°C° 0.5 mm 4 mps 746 mmHg 64%
    18:00 +22°C° 0.6 mm 4 mps 746 mmHg 65%
    19:00 +22°C° 0.6 mm 4 mps 746 mmHg 66%
    20:00 +21°C° 0.6 mm 4 mps 746 mmHg 67%
    21:00 +21°C° 0.5 mm 4 mps 746 mmHg 67%
    22:00 +21°C° 0.5 mm 4 mps 746 mmHg 67%
    23:00 +21°C° 0.5 mm 4 mps 745 mmHg 67%

    24 October, Wednesday

    Time Temperature Precipitation Wind Pressure Humidity
    00:00 +21°C° 0.5 mm 4 mps 745 mmHg 69%
    01:00 +21°C° 0.5 mm 4 mps 745 mmHg 71%
    02:00 +21°C° 0.5 mm 4 mps 744 mmHg 73%
    03:00 +21°C° 0.9 mm 4 mps 744 mmHg 75%
    04:00 +20°C° 0.9 mm 3 mps 743 mmHg 77%
    05:00 +20°C° 0.9 mm 3 mps 743 mmHg 78%
    06:00 +20°C° 0.7 mm 3 mps 743 mmHg 76%
    07:00 +20°C° 0.7 mm 3 mps 743 mmHg 73%
    08:00 +21°C° 0.7 mm 4 mps 743 mmHg 71%
    09:00 +21°C° 0.4 mm 4 mps 743 mmHg 69%
    10:00 +21°C° 0.4 mm 3 mps 743 mmHg 67%
    11:00 +22°C° 0.4 mm 3 mps 743 mmHg 65%
    12:00 +22°C° 0.5 mm 3 mps 742 mmHg 64%
    13:00 +22°C° 0.5 mm 3 mps 742 mmHg 63%
    14:00 +22°C° 0.5 mm 3 mps 741 mmHg 62%
    15:00 +22°C° 0.3 mm 3 mps 741 mmHg 63%
    16:00 +21°C° 0.3 mm 3 mps 741 mmHg 64%
    17:00 +21°C° 0.3 mm 3 mps 741 mmHg 64%
    18:00 +21°C° 0.2 mm 4 mps 741 mmHg 65%
    19:00 +21°C° 0.2 mm 5 mps 742 mmHg 65%
    20:00 +21°C° 0.2 mm 5 mps 742 mmHg 66%
    21:00 +21°C° 0.4 mm 5 mps 742 mmHg 67%
    22:00 +21°C° 0.4 mm 5 mps 742 mmHg 68%
    23:00 +20°C° 0.4 mm 6 mps 742 mmHg 69%

    25 October, Thursday

    Time Temperature Precipitation Wind Pressure Humidity
    00:00 +20°C° 0.2 mm 6 mps 742 mmHg 71%
    01:00 +20°C° 0.2 mm 6 mps 742 mmHg 73%
    02:00 +20°C° 0.2 mm 6 mps 742 mmHg 75%
    03:00 +20°C° 0 mm 6 mps 742 mmHg 74%
    04:00 +19°C° 0 mm 6 mps 742 mmHg 73%
    05:00 +19°C° 0 mm 5 mps 742 mmHg 72%
    06:00 +19°C° 0 mm 6 mps 743 mmHg 68%
    07:00 +20°C° 0 mm 7 mps 743 mmHg 64%
    08:00 +20°C° 0 mm 8 mps 744 mmHg 60%
    09:00 +21°C° 0.1 mm 9 mps 744 mmHg 57%
    10:00 +22°C° 0.1 mm 10 mps 745 mmHg 54%
    11:00 +23°C° 0.1 mm 10 mps 745 mmHg 52%
    12:00 +22°C° 0 mm 11 mps 746 mmHg 51%
    13:00 +21°C° 0 mm 11 mps 746 mmHg 50%
    14:00 +21°C° 0 mm 11 mps 746 mmHg 49%
    15:00 +19°C° 0 mm 10 mps 747 mmHg 52%
    16:00 +17°C° 0 mm 10 mps 747 mmHg 55%
    17:00 +16°C° 0 mm 9 mps 748 mmHg 58%
    18:00 +16°C° 0 mm 9 mps 748 mmHg 57%
    19:00 +15°C° 0 mm 9 mps 749 mmHg 55%
    20:00 +15°C° 0 mm 8 mps 750 mmHg 54%
    21:00 +13°C° 0 mm 8 mps 750 mmHg 53%
    22:00 +13°C° 0 mm 8 mps 750 mmHg 53%
    23:00 +13°C° 0 mm 8 mps 751 mmHg 53%

    26 October, Friday

    Time Temperature Precipitation Wind Pressure Humidity
    00:00 +14°C° 0 mm 7 mps 751 mmHg 53%
    01:00 +14°C° 0 mm 7 mps 751 mmHg 54%
    02:00 +14°C° 0 mm 6 mps 751 mmHg 55%
    03:00 +14°C° 0 mm 6 mps 751 mmHg 55%
    04:00 +14°C° 0 mm 6 mps 751 mmHg 56%
    05:00 +14°C° 0 mm 5 mps 752 mmHg 56%
    06:00 +14°C° 0 mm 5 mps 752 mmHg 55%
    07:00 +15°C° 0 mm 5 mps 752 mmHg 54%
    08:00 +15°C° 0 mm 4 mps 753 mmHg 54%
    09:00 +17°C° 0 mm 4 mps 753 mmHg 50%
    10:00 +18°C° 0 mm 3 mps 753 mmHg 47%
    11:00 +19°C° 0 mm 3 mps 754 mmHg 43%
    12:00 +20°C° 0 mm 3 mps 753 mmHg 42%
    13:00 +20°C° 0 mm 3 mps 753 mmHg 40%
    14:00 +21°C° 0 mm 2 mps 753 mmHg 39%
    15:00 +20°C° 0 mm 2 mps 753 mmHg 40%
    16:00 +20°C° 0 mm 2 mps 753 mmHg 41%
    17:00 +19°C° 0 mm 2 mps 753 mmHg 42%
    18:00 +19°C° 0 mm 2 mps 753 mmHg 45%
    19:00 +18°C° 0 mm 2 mps 753 mmHg 48%
    20:00 +18°C° 0 mm 2 mps 753 mmHg 51%
    21:00 +17°C° 0 mm 2 mps 753 mmHg 52%
    22:00 +17°C° 0 mm 2 mps 753 mmHg 53%
    23:00 +17°C° 0 mm 2 mps 753 mmHg 55%
    Show more